Regional Weather Roundup
Issued by NWS Grand Forks, ND

Home | Current Version | Previous Version | Graphics & Text | Print | Product List | Glossary On
Versions: 1 2 3 4 5 6 7 8 9 10 11 12 13 14 15 16 17 18 19 20 21 22 23 24 25 26 27 28 29 30 31 32 33 34 35 36 37 38 39 40 41 42 43 44 45 46 47 48 49 50
040
ASUS43 KFGF 170631
RWRFGF
PRAIRIE TO PINES  WEATHER ROUNDUP
NATIONAL WEATHER SERVICE EASTERN NORTH DAKOTA/GRAND FORKS ND
1200 AM CST SUN DEC 17 2017

 **SATELLITE DATA USED TO AUGMENT SKY COVER AT AUTOMATED STATIONS**
 *****  WEATHER ACROSS EASTERN NORTH DAKOTA  *****

CITY           SKY/WX    TMP DP  RH WIND       PRES   REMARKS
GRAND FORKS    FAIR      15  13  91 S8        30.05R WCI   4
6HR MIN TEMP:  10; 6HR MAX TEMP:  17;

GRAND FRKS AFB FAIR      20  18  93 SW8       30.04R WCI  10
GRAND FRKS NWS   N/A     19 N/A N/A SW7         N/A  WCI  10
DEVILS LAKE    FAIR      22  19  89 SW9       30.02S WCI  12
6HR MIN TEMP:  20; 6HR MAX TEMP:  27;

FARGO          FAIR      26  25  96 S7        30.09R WCI  18
WAHPETON ARPT    N/A     21  19  93 CALM      30.10F
$$

 ***** WEATHER ACROSS CENTRAL AND WESTERN NORTH DAKOTA  *****

CITY           SKY/WX    TMP DP  RH WIND       PRES   REMARKS
BISMARCK       FAIR      27  24  89 SW5       30.08R WCI  22
6HR MIN TEMP:  26; 6HR MAX TEMP:  33;

MINOT          FAIR      26  19  74 SW9       30.01R WCI  17
6HR MIN TEMP:  25; 6HR MAX TEMP:  33;

JAMESTOWN      FAIR      28  26  92 SW6       30.05S WCI  22
6HR MIN TEMP:  27; 6HR MAX TEMP:  31;

MINOT AFB      FAIR      22  17  81 W10       30.00R WCI  12
GARRISON         N/A     26  21  81 W9        30.03S WCI  17
WILLISTON      FAIR      21  17  84 SW9       30.05R WCI  11
6HR MIN TEMP:  19; 6HR MAX TEMP:  27;

DICKINSON      FAIR      24  18  77 W8        30.03S WCI  15
6HR MIN TEMP:  23; 6HR MAX TEMP:  27;

HETTINGER      FAIR      19  16  88 CALM      30.07F
6HR MIN TEMP:  19; 6HR MAX TEMP:  29;

$$

 *****  OTHER AIRPORT OBSERVATIONS IN OUR AREA  *****

CITY           SKY/WX    TMP DP  RH WIND       PRES   REMARKS
WALHALLA       FAIR      25  23  93 W9        29.99R WCI  15
GRAFTON AIRPOR NOT AVBL
VALLEY CITY AR NOT AVBL
CANDO          FAIR      14  14 100 W8        30.02S WCI   3
CAVALIER APRT  FAIR      12  12 100 E3        30.00R
GWINNER          N/A     28  28 100 CALM      30.07F
SHEYENNE NWR     N/A     25  25 100 CALM      29.95S
ROLLA          FAIR      12  12 100 SW6       29.97S WCI   3
 ***** THE ABOVE OBSERVATIONS ARE NON NWS ARE NOT QUALITY
       CONTROLLED AND MAY MIS-REPORT RAIN FOR SNOW...
$$

  *****  WEATHER ACROSS NORTHERN MINNESOTA  *****

CITY           SKY/WX    TMP DP  RH WIND       PRES   REMARKS
FLAG ISLAND    CLOUDY    19  18  93 S7        30.00F WCI  10
WARROAD        MOCLDY    18  14  86 CALM      30.02S
ROSEAU         CLOUDY    19  16  86 S8        30.01F HAZE    WCI   9
HALLOCK        FAIR      14  12  92 S8        30.01S WCI   3
THF RVR FALLS  FOG       19  19 100 S10       30.06S VSB 1   WCI   8
6HR MIN TEMP:  16; 6HR MAX TEMP:  21;

BAUDETTE       CLOUDY    20  19  96 S7        30.02F FOG     WCI  11
6HR MIN TEMP:  12; 6HR MAX TEMP:  20;

WASKISH        CLOUDY    21  21 100 SW5       30.06S FOG     WCI  15
CROOKSTON      FAIR      18  16  93 S5        30.07S WCI  11
STEPHEN NDAWN    N/A     18  16  93 S10         N/A  WCI   6
GREENBUSH NDAW   N/A     16  14  93 S10         N/A  WCI   3
$$
  *****  WEATHER ACROSS CENTRAL AND WEST MINNESOTA  *****

CITY           SKY/WX    TMP DP  RH WIND       PRES   REMARKS
FOSSTON        CLOUDY    23  21  93 S9        30.07S WCI  13
BEMIDJI        CLOUDY    24  23  95 SW3       30.06R
6HR MIN TEMP:  23; 6HR MAX TEMP:  25;

PARK RAPIDS    CLOUDY    25  23  92 S3        30.06S
6HR MIN TEMP:  24; 6HR MAX TEMP:  26;

ELBOW LAKE       N/A     22  21  98 CALM      30.09F FOG
6HR MIN TEMP:  21; 6HR MAX TEMP:  28;

WADENA         CLOUDY    25  25 100 CALM      30.07F FOG
DETROIT LAKES  CLOUDY    27  27 100 S3        30.07F
MOORHEAD       FAIR      21  19  93 CALM      30.10S FOG
FERGUS FALLS   FAIR      21  21 100 CALM      30.12S FOG
MORRIS MN      CLOUDY    25  25 100 CALM      30.08F FOG
STAPLES        CLOUDY    25  25 100 CALM      30.08S FOG
$$
  *****  WEATHER ELSEWHERE ACROSS MINNESOTA  *****

CITY           SKY/WX    TMP DP  RH WIND       PRES   REMARKS
DULUTH         CLOUDY    19  14  81 CALM      30.09S
6HR MIN TEMP:  18; 6HR MAX TEMP:  20;

INTRNTL FALLS  CLOUDY    20  17  88 VRB3      30.04F
6HR MIN TEMP:  12; 6HR MAX TEMP:  20;

ELY            CLOUDY    21  18  86 SW3       30.07S
CLOQUET        CLOUDY    19  14  79 CALM      30.10S
WHEATON        MOCLDY    27  25  93 CALM      30.11F FOG
BRAINERD       CLOUDY    23  19  85 S3        30.10S
6HR MIN TEMP:  20; 6HR MAX TEMP:  24;

HIBBING        CLOUDY    19  16  88 SW3       30.08S
6HR MIN TEMP:  19; 6HR MAX TEMP:  20;

ALEXANDRIA     CLOUDY    27  26  96 SE3       30.08F FOG
6HR MIN TEMP:  27; 6HR MAX TEMP:  28;

SAINT CLOUD    FAIR      22  17  81 NE5       30.10F WCI  16
6HR MIN TEMP:  21; 6HR MAX TEMP:  24;

MINNEAPOLIS    CLOUDY    23  18  81 NE3       30.09F
6HR MIN TEMP:  23; 6HR MAX TEMP:  27;

$$

  *****  WEATHER ACROSS SOUTH DAKOTA  *****

CITY           SKY/WX    TMP DP  RH WIND       PRES   REMARKS
SIOUX FALLS    CLOUDY    28  27  96 NE6       30.06R WCI  22
6HR MIN TEMP:  27; 6HR MAX TEMP:  33;

BROOKINGS      FAIR      29  28  96 NE5       30.05F WCI  24
WATERTOWN      FAIR      27  27 100 CALM      30.05F
6HR MIN TEMP:  24; 6HR MAX TEMP:  33;

HURON          CLOUDY    28  28 100 CALM      30.08S FOG
6HR MIN TEMP:  27; 6HR MAX TEMP:  38;

SISSETON         N/A     26  25  96 S6        30.08S WCI  19
ABERDEEN       CLOUDY    27  27 100 CALM      30.08S
6HR MIN TEMP:  27; 6HR MAX TEMP:  35;

MITCHELL       MOCLDY    31  30  96 NE5       30.08S
PIERRE         CLOUDY    32  31  96 NW5       30.07R
6HR MIN TEMP:  32; 6HR MAX TEMP:  35;

MOBRIDGE       FAIR      28  24  85 CALM      30.06R
RAPID CITY     CLOUDY    32  23  69 NW10      30.06S WCI  24
6HR MIN TEMP:  31; 6HR MAX TEMP:  34;

$$

  *****  SOME WEATHER IN NEARBY STATES *****

CITY           SKY/WX    TMP DP  RH WIND       PRES   REMARKS
GLASGOW MT     FAIR      15  11  83 SE5       30.03S WCI   8
6HR MIN TEMP:  15; 6HR MAX TEMP:  30;

GREAT FALLS MT FAIR      20  13  74 SW13      29.97F WCI   7
6HR MIN TEMP:  18; 6HR MAX TEMP:  28;

CHEYENNE WY    FOG       26  26 100 E6        29.92F VSB 1/4 WCI  19
6HR MIN TEMP:  26; 6HR MAX TEMP:  34;

SCOTTSBLUFF NE CLOUDY    33  27  78 E10       30.01S WCI  25
6HR MIN TEMP:  33; 6HR MAX TEMP:  36;

OMAHA NE       MOCLDY    35  26  69 N13       29.98F
6HR MIN TEMP:  33; 6HR MAX TEMP:  40;

DES MOINES IA  MOCLDY    36  26  67 NE8       29.98S
6HR MIN TEMP:  35; 6HR MAX TEMP:  45;

DAVENPORT IA   FAIR      30  24  78 E7        30.04R WCI  23
6HR MIN TEMP:  28; 6HR MAX TEMP:  36;

CHICAGO IL     FAIR      32  29  88 N6        30.04F
6HR MIN TEMP:  27; 6HR MAX TEMP:  39;

EAU CLAIRE WI  CLOUDY    24  22  91 NE7       30.10F WCI  16
6HR MIN TEMP:  21; 6HR MAX TEMP:  25;

LA CROSSE WI   CLOUDY    29  26  89 E3        30.10R
6HR MIN TEMP:  28; 6HR MAX TEMP:  30;

$$

  *****  SOME NATIONAL WEATHER *****

CITY           SKY/WX    TMP DP  RH WIND       PRES   REMARKS
LA GUARDIA NY  CLOUDY    35  20  54 N9        30.21R
6HR MIN TEMP:  35; 6HR MAX TEMP:  40;

RALEIGH NC     FAIR      34  24  67 W3        30.26F
6HR MIN TEMP:  32; 6HR MAX TEMP:  41;

ATLANTA GA     FAIR      38  30  73 CALM      30.26F
6HR MIN TEMP:  37; 6HR MAX TEMP:  46;

NEW ORLEANS LA MOCLDY    59  58  96 E12       30.09F
6HR MIN TEMP:  53; 6HR MAX TEMP:  59;

OKLAHOMA CITY  DRIZZLE   42  41  96 S18       29.99R FOG
6HR MIN TEMP:  42; 6HR MAX TEMP:  55; 6HR PCP:  0.01;

ALBUQUERQUE NM MOCLDY    32  14  47 E9        29.89R WCI  24
6HR MIN TEMP:  32; 6HR MAX TEMP:  44;

SALT LAKE CITY CLOUDY    31  28  89 NW6       30.07S
6HR MIN TEMP:  30; 6HR



USA.gov is the U.S. government's official web portal to all federal, state and local government web resources and services.